COSMOS 1743

Satellite information

Favourite Embed

Satellite Type and Status

PAYLOADIN ORBIT

Key statistics

Satellite COSMOS 1743 at a glance.

Uptime

14362

Days in orbit

Revolutions

≈ 15.5

Per day

Orbit

LEO

Low Earth Orbit

Inclination

82.5

Latest

Satellite identification and parameters

Extended collection of information and parameters for COSMOS 1743.

Object identification

Identified? True

Debris? False

Object name: COSMOS 1743

International designator: 1986-034A

Object number (NORAD): 16719

Object ID (CCSDS): 16719

Country: COMMONWEALTH OF INDEPENDENT STATES (CIS)

Current information (Y/N): Y

RCS size: LARGE

Orbital parameters

Period: 93.15 minutes

Inclination: 82.5341 deg

SMA: 6806.875 km

Apoapsis: 432.531 km

Periapsis: 424.949 km

RAAN: 263.0219 deg

Eccentricy: 0.0005569

Argument of periapsis: 208.1286 deg

Mean anomaly: 151.9663 deg

Mean motion: 15.45898912 rev/day

Mean motion (dot): 0.00019196 rev/day2

B* drag term: 0.00039366845 1/REarth

Two-line elements (TLE)

Creation date: Sept. 8, 2025, 6:18 p.m.

Reference frame: TEME

Reference center: EARTH

Epoch: Sept. 8, 2025, 11:46 a.m. UTC

TLE line 0: 0 COSMOS 1743

TLE line 1: 1 16719U 86034A 25251.49076493 .00019196 00000-0 39367-3 0 9999

TLE line 2: 2 16719 82.5341 263.0219 0005569 208.1286 151.9663 15.45898912151992

Live tracking on map

Real-time ground track for satellite COSMOS 1743.

In-orbit conjunctions

A list of the most updated potential collisions computed for object COSMOS 1743.

Target Orbit TCA Probability of collision Miss distance Type
TLV R/B LEO 2025-08-28 15:29:45 0.00125799 340.0 (m) ROCKET BODY

Associated space launch

Tselina-D satellites provided detailed observation of radio sources detected by the smaller Tselina-O satellites as part of the Tselina ELINT system.

COSMOS 1743 was lifted into orbit during the mission ‘Tsiklon-3 | Tselina-D 55’, on board a Tsiklon-3 space rocket.

The launch took place on May 15, 1986, 4:26 a.m. from 32/1.

For more information about the launch, click the button.

Launch to space Tsiklon-3 | Tselina-D 55
Tsiklon-3 | Tselina-D 55

Agency: N/A

Status: Launch Successful

Launch date: May 15, 1986, 4:26 a.m. UTC

Rocket: Tsiklon-3

Launch pad: 32/1

Location: Plesetsk Cosmodrome, Russian Federation

...

Latest news about this satellite

There are no fresh news available about this satellite. Check back as we update our databases every day.


Newsletter sign-up

Weekly statistics, charts and insights to help you stay on top of the space industry.